OKEAN-0
1 25860U 99039A 11117.98823795 .00000338 00000-0 59062-4 0 03122
2 25860 097.8789 085.8295 0001567 102.5762 257.5622 14.73764456633266
NOAA-16
1 26536U 00055A 11117.78791004 .00000040 00000-0 46477-4 0 02752
2 26536 099.1440 147.2973 0010977 169.9718 190.1676 14.12611099546244
NOAA-17
1 27453U 02032A 11117.73575397 .00000066 00000-0 46568-4 0 02690
2 27453 098.3835 159.7502 0010749 299.5495 060.4630 14.24263169459478
NOAA-18
1 28654U 05018A 11117.77011534 .00000498 00000-0 29969-3 0 07490
2 28654 098.9918 068.8045 0013516 246.2734 113.7020 14.11467379305810
NOAA-19
1 33591U 09005A 11117.75624973 .00000322 00000-0 20249-3 0 09413
2 33591 098.8235 058.7654 0014843 116.9600 243.3112 14.11157611114275
HUBBLE
1 20580U 90037B 11118.06210884 .00001309 00000-0 86614-4 0 7535
2 20580 028.4717 343.8766 0003309 306.0738 053.9589 15.01312227952116
ISS
1 25544U 98067A 11118.84018274 .00031309 00000-0 21649-3 0 2664
2 25544 051.6472 054.1762 0002845 153.4725 303.6642 15.74233916713138
CO-58
1 28895U 05043F 11117.62763812 .00000489 00000-0 11082-3 0 08603
2 28895 097.9737 355.9511 0018426 023.1635 337.0401 14.60075490292867
FALCON
1 30776U 07006E 11118.80635425 .00002536 00000-0 18048-3 0 745
2 30776 035.4342 287.2091 0001748 345.7040 014.3631 15.04483575227605
MAST
1 31126U 07012K 11118.96061487 .00000284 00000-0 74484-4 0 1454
2 31126 097.9007 148.9601 0093979 324.6714 034.8279 14.53728372213933
CAPE1
1 31130U 07012P 11118.55642730 .00000408 00000-0 10431-3 0 1628
2 31130 097.9015 145.4191 0101948 336.0196 023.6270 14.52364071213433
COMPASS
1 32787U 08021E 11118.32860633 .00001062 00000-0 13921-3 0 9719
2 32787 097.8501 183.0664 0015674 343.1319 016.9369 14.82333619162175
AAUSAT2
1 32788U 08021F 11117.82601903 .00001598 00000-0 20518-3 0 09632
2 32788 097.8502 182.7806 0014756 345.5914 014.4846 14.82513747162117
DO-64
1 32789U 08021G 11118.25559567 .00001873 00000-0 23708-3 0 9785
2 32789 097.8611 184.1144 0014706 342.1914 017.8771 14.82919754162187
CO-66
1 32791U 08021J 11117.65992217 .00000705 00000-0 95268-4 0 09654
2 32791 097.8509 182.3657 0015781 344.3730 015.7002 14.82039273162025
RS-30
1 32953U 08025A 11118.24440354 .00000010 00000-0 00000 0 0 6790
2 32953 082.5043 193.7667 0020187 133.5175 226.7585 12.43012263132889
TACSAT-3
1 35001U 09028A 11117.49063276 .00018256 00000-0 34804-3 0 05873
2 35001 040.4530 120.3085 0022679 195.4942 164.5182 15.47403559109220
PHARMSAT
1 35002U 09028B 11117.38344353 .00015814 00000-0 30337-3 0 05425
2 35002 040.4691 118.5023 0024613 200.1448 159.8399 15.47247468109238
HAWKSAT1
1 35003U 09028C 11117.35343559 .00064917 00000-0 78510-3 0 06019
2 35003 040.4535 096.7204 0022379 225.4827 134.4165 15.59426424109472
CP6
1 35004U 09028D 11117.93887603 .00087110 00000-0 88830-3 0 06024
2 35004 040.4533 086.8814 0022153 234.3978 125.4775 15.63711430109627
METEOR-M
1 35865U 09049A 11118.25807802 .00000176 00000-0 10000-3 0 3197
2 35865 098.7106 174.0226 0002631 156.6224 203.5074 14.21837408 83493
RS-38
1 35869U 09049E 11118.19386059 .00000177 00000-0 10000-3 0 3225
2 35869 098.7074 173.9969 0004622 166.9139 193.2139 14.22008244 83490
